Terminal Aerodrome Forecast
Issued by NWS Hastings, NE

Home | Current Version | Previous Version | Text Only | Print | Product List | Glossary On
Versions: 1 2 3 4 5 6 7 8 9 10 11 12 13 14 15 16 17 18 19 20 21 22 23 24 25 26 27 28 29 30 31 32 33 34 35 36 37 38 39 40 41 42 43 44 45 46 47 48 49 50
000
FTUS43 KGID 211725
TAFGRI
TAF
KGRI 211725Z 2118/2218 18012KT 2SM BR BKN004
     FM212200 18010KT 3SM BR BKN120
     FM220300 21012KT 3SM -RA BR BKN009 OVC150
     FM221100 25013KT P6SM BKN050=

USA.gov is the U.S. government's official web portal to all federal, state and local government web resources and services.